User: anonymous   Login
Location: Unspecified
(0.0000°N, 0.0000°E)
Time: 14:55:13
(UTC+00:00)
Language:

AO-27 - Orbit

View from above orbital plane
View from above orbital plane
View from above satellite
View from above satellite

Ground track
Ground track

The orbit data is extracted from the following two-line orbital elements,

1 22825U 93061C   17351.86234810 -.00000006  00000-0  15430-4 0  9991
2 22825  98.8386 319.9381 0008859 149.3552 210.8149 14.30016688263650
Epoch (UTC): 17 December 2017 20:41:46
Eccentricity: 0.0008859
inclination: 98.8386°
perigee height: 785 km
apogee height: 798 km
right ascension of ascending node: 319.9381°
argument of perigee: 149.3552°
revolutions per day: 14.30016688
mean anomaly at epoch: 210.8149°
orbit number at epoch: 26365

The dashed part of the orbit path shows where the satellite is in the earth's shadow,  

DLR